1508256000.72,31740,21.5,74782.5,5.83,-29.07,-30.95,0,*71
1508256001.99,31741,21.5,74780.5,5.85,-29.13,-30.95,0,*73
1508256003.19,31742,21.5,74784.5,5.83,-29.07,-30.83,0,*74
1508256004.43,31743,21.5,74780.3,5.83,-28.97,-30.77,0,*76
1508256005.68,31744,21.5,74780.8,5.81,-28.75,-30.67,0,*7E
1508256006.95,31745,21.5,74786.8,5.81,-28.63,-30.51,0,*7D
1508256008.2,31746,21.5,74784.5,5.81,-28.85,-30.73,0,*76
1508256009.47,31747,21.5,74782.5,5.81,-28.75,-30.39,0,*76
1508256010.73,31748,21.5,74784.0,5.81,-28.79,-30.55,0,*7F
1508256011.98,31749,21.5,74776.8,5.81,-28.63,-30.23,0,*74
1508256013.19,31750,21.5,74780.5,5.81,-28.31,-29.95,0,*7E
1508256014.44,31751,21.5,74782.8,5.81,-28.25,-29.79,0,*78
1508256015.69,31752,21.5,74784.5,5.83,-28.43,-30.17,0,*79
1508256016.91,31753,21.5,74782.0,5.83,-28.43,-30.27,0,*7B
1508256018.13,31754,21.5,74780.8,5.83,-28.59,-30.27,0,*77
1508256019.36,31755,21.5,74784.0,5.83,-28.37,-29.89,0,*72
1508256020.61,31756,21.5,74784.5,5.83,-28.75,-30.51,0,*7A
1508256021.84,31757,21.5,74782.0,5.83,-28.91,-30.67,0,*74
1508256023.05,31758,21.5,74782.8,5.83,-28.97,-30.67,0,*7D
1508256024.3,31759,21.5,74782.3,5.81,-28.97,-30.73,0,*7B
1508256025.56,31760,21.5,74780.5,5.81,-28.75,-30.55,0,*79
1508256026.83,31761,21.5,74782.3,5.81,-28.63,-30.51,0,*7B
1508256028.04,31762,21.5,74780.5,5.83,-28.69,-30.33,0,*74
1508256029.31,31763,21.5,74782.0,5.81,-28.43,-30.17,0,*79
1508256030.55,31764,21.5,74780.5,5.83,-28.75,-30.51,0,*7B
1508256031.78,31765,21.5,74780.3,5.83,-28.79,-30.45,0,*73
1508256033.05,31766,21.5,74780.0,5.81,-28.75,-30.39,0,*75
1508256034.27,31767,21.5,74784.5,5.83,-28.75,-30.45,0,*7D
1508256035.49,31768,21.5,74782.5,5.81,-28.97,-30.67,0,*7C
1508256036.76,31769,21.5,74782.3,5.81,-28.75,-30.51,0,*74
1508256038.01,31770,21.5,74782.3,5.81,-28.63,-30.33,0,*7F
1508256039.25,31771,21.5,74780.8,5.81,-28.47,-30.23,0,*79
1508256040.52,31772,21.5,74780.0,5.81,-28.43,-30.17,0,*79
1508256041.74,31773,21.5,74782.8,5.83,-28.43,-30.11,0,*7C
1508256042.99,31774,21.5,74784.8,5.83,-28.21,-29.89,0,*76
1508256044.22,31775,21.5,74782.5,5.83,-28.59,-30.33,0,*71
1508256045.42,31776,21.5,74782.0,5.83,-28.69,-30.33,0,*71
1508256046.64,31777,21.5,74782.3,5.83,-28.43,-30.27,0,*7D
1508256047.84,31778,21.5,74780.3,5.83,-28.53,-30.27,0,*73
1508256049.05,31779,21.5,74782.8,5.83,-28.53,-30.33,0,*77
1508256050.25,31780,21.5,74782.3,5.83,-28.53,-30.27,0,*74
1508256051.48,31781,21.5,74780.0,5.85,-28.53,-30.33,0,*76
1508256052.72,31782,21.5,74784.0,5.83,-28.75,-30.51,0,*73
1508256053.97,31783,21.5,74784.0,5.83,-28.75,-30.51,0,*72
1508256055.22,31784,21.5,74780.5,5.83,-28.59,-30.51,0,*7B
1508256056.48,31785,21.5,74784.0,5.83,-28.91,-30.61,0,*7D
1508256057.68,31786,21.5,74782.3,5.83,-28.53,-30.33,0,*77
1508256058.91,31787,21.5,74782.8,5.83,-28.53,-30.17,0,*70
1508256060.15,31788,21.5,74780.0,5.83,-28.53,-30.17,0,*7F
1508256061.38,31789,21.5,74780.3,5.83,-28.75,-30.67,0,*7D
1508256062.6,31790,21.5,74780.3,5.83,-28.43,-29.95,0,*75
1508256063.79,31791,21.5,74780.0,5.83,-28.37,-29.95,0,*77
1508256064.99,31792,21.5,74786.0,5.83,-28.37,-29.95,0,*74
1508256066.22,31793,21.5,74782.8,5.85,-28.53,-30.27,0,*70
1508256067.41,31794,21.5,74778.3,5.83,-28.37,-30.11,0,*76
1508256068.64,31795,21.5,74780.8,5.83,-28.69,-30.51,0,*78
1508256069.86,31796,21.5,74782.0,5.85,-28.53,-30.33,0,*70
1508256071.08,31797,21.5,74780.8,5.83,-28.69,-30.51,0,*7A
1508256072.28,31798,21.5,74780.0,5.83,-28.69,-30.45,0,*70
1508256073.55,31799,21.5,74780.8,5.85,-28.43,-30.17,0,*78
1508256074.76,31800,21.5,74780.0,5.83,-28.53,-30.33,0,*76
1508256075.98,31801,21.5,74782.3,5.83,-28.25,-30.11,0,*76
1508256077.21,31802,21.5,74782.5,5.83,-28.59,-30.45,0,*7F
1508256078.46,31803,21.5,74780.3,5.83,-28.75,-30.61,0,*76
1508256079.69,31804,21.5,74782.3,5.83,-28.59,-30.27,0,*7D
1508256080.91,31805,21.5,74782.8,5.83,-28.59,-30.33,0,*79
1508256082.14,31806,21.5,74780.5,5.83,-28.75,-30.67,0,*75
1508256083.39,31807,21.5,74784.3,5.85,-28.75,-30.45,0,*72
1508256084.61,31808,21.5,74780.5,5.83,-28.59,-30.33,0,*74
1508256085.82,31809,21.5,74780.0,5.83,-28.53,-30.27,0,*7A
1508256087.02,31810,21.5,74782.3,5.83,-28.69,-30.33,0,*7E
1508256088.24,31811,21.5,74780.8,5.83,-28.69,-30.51,0,*7B
1508256089.46,31812,21.5,74780.0,5.85,-28.53,-30.27,0,*76
1508256090.66,31813,21.5,74782.5,5.83,-28.53,-30.27,0,*71
1508256091.92,31814,21.5,74780.5,5.83,-28.75,-30.61,0,*70
1508256093.19,31815,21.5,74784.0,5.85,-28.75,-30.61,0,*77
1508256094.42,31816,21.5,74780.3,5.83,-28.59,-30.33,0,*7B
1508256095.61,31817,21.5,74780.5,5.83,-28.37,-30.11,0,*72
1508256096.84,31818,21.5,74780.0,5.85,-28.53,-30.33,0,*79
1508256098.07,31819,21.5,74782.3,5.83,-28.59,-30.33,0,*74
1508256099.27,31820,21.5,74778.0,5.83,-28.69,-30.45,0,*7C
1508256100.53,31821,21.5,74782.0,5.85,-28.75,-30.51,0,*73
1508256101.78,31822,21.5,74784.8,5.83,-28.75,-30.51,0,*76
1508256103.04,31823,21.5,74782.0,5.83,-28.79,-30.61,0,*78
1508256104.24,31824,21.5,74780.5,5.83,-28.53,-30.27,0,*75
1508256105.48,31825,21.5,74780.5,5.83,-28.75,-30.51,0,*71
1508256106.68,31826,21.5,74786.0,5.83,-28.69,-30.45,0,*7A
1508256107.88,31827,21.5,74782.5,5.83,-28.69,-30.45,0,*7B
1508256109.15,31828,21.5,74782.3,5.81,-28.63,-30.39,0,*77
1508256110.39,31829,21.5,74782.3,5.81,-28.43,-29.95,0,*7A
1508256111.64,31830,21.5,74780.5,5.83,-28.05,-29.73,0,*7A
1508256112.88,31831,21.5,74782.8,5.83,-28.09,-29.73,0,*77
1508256114.11,31832,21.5,74786.8,5.83,-28.37,-29.89,0,*7C
1508256115.34,31833,21.5,74780.5,5.83,-28.21,-29.95,0,*77
1508256116.56,31834,21.5,74784.0,5.83,-28.43,-30.11,0,*70
1508256117.78,31835,21.5,74780.5,5.83,-28.59,-30.27,0,*7F
1508256119.0,31836,21.5,74778.0,5.83,-28.75,-30.45,0,*76
1508256120.23,31837,21.5,74780.5,5.85,-28.53,-30.33,0,*74
1508256121.46,31838,21.5,74780.0,5.83,-28.53,-30.17,0,*7B
1508256122.69,31839,21.5,74780.8,5.83,-28.37,-30.17,0,*78
1508256123.93,31840,21.5,74782.3,5.85,-28.21,-29.79,0,*77
1508256125.16,31841,21.5,74782.3,5.83,-28.25,-29.95,0,*76
1508256126.35,31842,21.5,74782.8,5.83,-28.37,-30.11,0,*72
1508256127.62,31843,21.5,74782.8,5.85,-28.09,-29.73,0,*74
1508256128.87,31844,21.5,74782.5,5.83,-28.25,-29.89,0,*7E
1508256130.15,31845,21.5,74780.8,5.85,-28.25,-29.89,0,*79
1508256131.39,31846,21.5,74780.0,5.85,-28.25,-29.95,0,*77
1508256132.66,31847,21.5,74784.0,5.85,-28.43,-30.17,0,*74
1508256133.91,31848,21.5,74782.3,5.85,-28.59,-30.33,0,*76
1508256135.18,31849,21.5,74780.8,5.85,-28.75,-30.51,0,*7D
1508256136.45,31850,21.5,74780.3,5.85,-28.75,-30.61,0,*76
1508256137.69,31851,21.5,74782.5,5.85,-28.69,-30.51,0,*79
1508256138.96,31852,21.5,74784.0,5.85,-28.79,-30.51,0,*7B
1508256140.21,31853,21.5,74784.0,5.85,-28.69,-30.51,0,*7B
1508256141.46,31854,21.5,74782.8,5.83,-28.79,-30.61,0,*78
1508256142.7,31855,21.5,74784.0,5.83,-28.91,-30.67,0,*79
1508256143.92,31856,21.5,74780.5,5.83,-28.43,-30.11,0,*74
1508256145.14,31857,21.5,74784.3,5.83,-28.59,-30.27,0,*7B
1508256146.4,31858,21.5,74782.3,5.83,-28.25,-30.17,0,*7C
1508256147.67,31859,21.5,74782.3,5.85,-28.43,-30.17,0,*7B
1508256148.91,31860,21.5,74782.3,5.83,-28.75,-30.51,0,*70
1508256150.17,31861,21.5,74782.5,5.83,-28.79,-30.61,0,*7E
1508256151.43,31862,21.5,74780.0,5.83,-28.79,-30.61,0,*7D
1508256152.62,31863,21.5,74782.0,5.83,-28.69,-30.45,0,*7B
1508256153.85,31864,21.5,74780.3,5.83,-28.59,-30.33,0,*7E
1508256155.13,31865,21.5,74782.3,5.85,-28.79,-30.61,0,*7C
1508256156.36,31866,21.5,74782.3,5.83,-29.07,-30.77,0,*76
1508256157.59,31867,21.5,74780.8,5.83,-28.97,-30.77,0,*7F
1508256158.84,31868,21.5,74782.5,5.83,-28.75,-30.51,0,*78
1508256160.09,31869,21.5,74782.3,5.83,-28.79,-30.51,0,*75
1508256161.33,31870,21.5,74780.0,5.83,-28.91,-30.67,0,*7E
1508256162.58,31871,21.5,74782.5,5.81,-28.97,-30.73,0,*7E
1508256163.84,31872,21.5,74782.8,5.83,-28.91,-30.61,0,*7A
1508256165.06,31873,21.5,74782.5,5.83,-28.69,-30.51,0,*7F
1508256166.28,31874,21.5,74780.5,5.83,-28.59,-30.45,0,*7E
1508256167.49,31875,21.5,74780.5,5.83,-28.53,-30.33,0,*74
1508256168.69,31876,21.5,74784.0,5.83,-28.53,-30.27,0,*72
1508256169.92,31877,21.5,74782.5,5.83,-28.59,-30.33,0,*7C
1508256171.14,31878,21.5,74780.0,5.83,-28.75,-30.45,0,*7C
1508256172.41,31879,21.5,74782.5,5.81,-28.75,-30.55,0,*7E
1508256173.64,31880,21.5,74780.3,5.83,-28.75,-30.67,0,*7B
1508256174.87,31881,21.5,74780.0,5.81,-28.85,-30.67,0,*77
1508256176.14,31882,21.5,74778.0,5.81,-29.13,-30.89,0,*7A
1508256177.39,31883,21.5,74782.0,5.79,-29.13,-30.89,0,*7C
1508256178.64,31884,21.5,74786.3,5.81,-29.13,-31.05,0,*79
1508256179.89,31885,21.5,74780.5,5.81,-29.01,-30.83,0,*74
1508256181.12,31886,21.5,74782.5,5.79,-28.97,-30.73,0,*71
1508256182.34,31887,21.5,74784.5,5.79,-28.97,-30.73,0,*70
1508256183.59,31888,21.5,74782.5,5.79,-28.75,-30.55,0,*77
1508256184.81,31889,21.5,74780.5,5.79,-28.59,-30.33,0,*78
1508256186.06,31890,21.5,74782.5,5.79,-28.63,-30.39,0,*73
1508256187.28,31891,21.5,74784.3,5.79,-28.59,-30.33,0,*71
1508256188.51,31892,21.5,74784.0,5.79,-28.97,-30.73,0,*74
1508256189.74,31893,21.5,74782.3,5.79,-29.01,-30.83,0,*74
1508256190.97,31894,21.5,74784.0,5.79,-29.01,-30.83,0,*73
1508256192.22,31895,21.5,74780.5,5.81,-28.97,-30.89,0,*71
1508256193.5,31896,21.5,74782.8,5.77,-29.01,-30.77,0,*74
1508256194.71,31897,21.5,74780.0,5.75,-28.97,-30.83,0,*72
1508256195.96,31898,21.5,74780.0,5.77,-29.07,-30.77,0,*7C
1508256197.21,31899,21.5,74780.8,5.77,-29.23,-30.95,0,*77
1508256198.48,31900,21.5,74780.8,5.77,-29.01,-30.89,0,*7B
1508256199.76,31901,21.5,74782.0,5.77,-29.01,-30.89,0,*7A
1508256200.99,31902,21.5,74784.3,5.75,-29.01,-30.67,0,*7B
1508256202.21,31903,21.5,74784.3,5.77,-28.69,-30.45,0,*77
1508256203.43,31904,21.5,74784.0,5.77,-28.53,-30.23,0,*79
1508256204.7,31905,21.5,74784.0,5.77,-28.63,-30.39,0,*70
1508256205.95,31906,21.5,74784.3,5.77,-28.79,-30.45,0,*73
1508256207.22,31907,21.5,74782.3,5.77,-28.79,-30.55,0,*73
1508256208.44,31908,21.5,74784.3,5.75,-28.63,-30.45,0,*74
1508256209.68,31909,21.5,74782.8,5.77,-28.69,-30.39,0,*76
1508256210.9,31910,21.5,74784.0,5.77,-28.69,-30.45,0,*75
1508256212.15,31911,21.5,74784.8,5.77,-28.63,-30.45,0,*7E
1508256213.43,31912,21.5,74782.5,5.77,-28.91,-30.77,0,*71
1508256214.66,31913,21.5,74782.8,5.75,-29.07,-30.77,0,*7C
1508256215.9,31914,21.5,74780.3,5.77,-28.69,-30.55,0,*70
1508256217.15,31915,21.5,74782.8,5.77,-28.63,-30.27,0,*7E
1508256218.39,31916,21.5,74780.8,5.77,-28.37,-30.05,0,*7C
1508256219.64,31917,21.5,74784.3,5.77,-28.31,-30.01,0,*7F
1508256220.86,31918,21.5,74782.8,5.77,-28.31,-29.83,0,*72
1508256222.13,31919,21.5,74780.8,5.77,-28.21,-29.89,0,*78
1508256223.38,31920,21.5,74782.0,5.77,-28.15,-29.89,0,*75
1508256224.6,31921,21.5,74784.5,5.79,-28.25,-29.83,0,*73
1508256225.85,31922,21.5,74782.8,5.79,-28.43,-30.01,0,*72
1508256227.07,31923,21.5,74784.3,5.79,-28.75,-30.33,0,*77
1508256228.32,31924,21.5,74782.5,5.81,-28.63,-30.33,0,*70
1508256229.54,31925,21.5,74780.8,5.79,-28.59,-30.23,0,*7E
1508256230.77,31926,21.5,74782.5,5.79,-28.59,-30.33,0,*7C
1508256232.01,31927,21.5,74782.0,5.79,-28.59,-30.39,0,*77
1508256233.23,31928,21.44,74776.8,5.79,-28.59,-30.23,0,*73
1508256234.45,31929,21.5,74784.3,5.79,-28.47,-30.23,0,*7D
1508256235.67,31930,21.5,74784.3,5.79,-28.59,-30.33,0,*7B
1508256236.89,31931,21.5,74782.0,5.81,-28.15,-29.95,0,*71
1508256238.16,31932,21.5,74782.3,5.81,-28.47,-30.17,0,*77
1508256239.4,31933,21.5,74782.5,5.79,-28.43,-30.01,0,*72
1508256240.62,31934,21.5,74784.5,5.79,-28.25,-29.95,0,*70
1508256241.84,31935,21.5,74782.5,5.79,-28.25,-29.95,0,*71
1508256243.11,31936,21.5,74780.8,5.81,-28.43,-30.01,0,*70
1508256244.38,31937,21.5,74780.8,5.81,-28.79,-30.55,0,*79
1508256245.63,31938,21.5,74784.3,5.81,-28.59,-30.33,0,*74
1508256246.88,31939,21.5,74786.0,5.81,-28.59,-30.33,0,*75
1508256248.09,31940,21.5,74782.0,5.79,-28.47,-30.23,0,*72
1508256249.31,31941,21.5,74784.8,5.79,-28.47,-30.23,0,*73
1508256250.53,31942,21.5,74782.0,5.79,-28.25,-29.83,0,*76
1508256251.8,31943,21.5,74786.8,5.81,-28.43,-30.17,0,*75
1508256253.05,31944,21.5,74780.3,5.81,-28.25,-29.95,0,*70
1508256254.29,31945,21.5,74786.0,5.81,-28.47,-30.33,0,*71
1508256255.52,31946,21.44,74778.3,5.81,-28.97,-30.67,0,*7E
1508256256.76,31947,21.5,74780.0,5.81,-28.47,-30.33,0,*73
1508256258.03,31948,21.5,74782.3,5.81,-28.63,-30.51,0,*7E
1508256259.3,31949,21.5,74780.3,5.81,-28.79,-30.51,0,*74
1508256260.53,31950,21.5,74786.3,5.79,-28.97,-30.73,0,*7B
1508256261.78,31951,21.5,74786.3,5.81,-28.97,-30.73,0,*7D
1508256263.03,31952,21.5,74780.8,5.81,-29.01,-30.83,0,*7F
1508256264.26,31953,21.5,74784.3,5.79,-28.85,-30.73,0,*7B
1508256265.51,31954,21.5,74780.0,5.79,-28.79,-30.55,0,*7B
1508256266.75,31955,21.5,74784.0,5.79,-28.59,-30.39,0,*72
1508256267.98,31956,21.5,74786.8,5.79,-28.25,-29.83,0,*73
1508256269.17,31957,21.5,74782.0,5.79,-28.15,-29.79,0,*74
1508256270.39,31958,21.5,74784.8,5.79,-28.31,-30.01,0,*7A
1508256271.66,31959,21.5,74784.3,5.81,-28.43,-30.17,0,*7E
1508256272.91,31960,21.5,74782.0,5.79,-28.43,-30.17,0,*73
1508256274.15,31961,21.5,74782.3,5.81,-28.47,-30.33,0,*77
1508256275.37,31962,21.5,74784.8,5.79,-28.25,-29.95,0,*73
1508256276.59,31963,21.5,74784.0,5.79,-28.47,-30.33,0,*72
1508256277.86,31964,21.5,74780.5,5.81,-28.63,-30.39,0,*7E
1508256279.13,31965,21.5,74780.3,5.81,-28.79,-30.55,0,*7E
1508256280.36,31966,21.5,74780.3,5.81,-28.97,-30.67,0,*7C
1508256281.61,31967,21.5,74782.0,5.81,-28.85,-30.73,0,*7B
1508256282.86,31968,21.5,74782.5,5.79,-29.13,-30.89,0,*78
1508256284.14,31969,21.5,74786.5,5.81,-29.01,-30.73,0,*78
1508256285.39,31970,21.5,74784.8,5.79,-28.79,-30.73,0,*79
1508256286.62,31971,21.5,74784.0,5.79,-28.63,-30.33,0,*77
1508256287.86,31972,21.5,74784.3,5.79,-28.47,-30.39,0,*78
1508256289.1,31973,21.5,74782.8,5.79,-28.47,-30.17,0,*75
1508256290.34,31974,21.5,74784.0,5.81,-28.47,-30.23,0,*72
1508256291.61,31975,21.5,74782.3,5.81,-28.43,-30.01,0,*77
1508256292.82,31976,21.5,74782.8,5.81,-28.31,-29.95,0,*74
1508256294.07,31977,21.5,74784.8,5.79,-28.43,-30.01,0,*72
1508256295.3,31978,21.5,74780.0,5.81,-28.47,-30.23,0,*7E
1508256296.54,31979,21.5,74784.0,5.81,-28.47,-30.23,0,*7F
1508256297.78,31980,21.44,74778.5,5.81,-28.47,-30.23,0,*79
1508256299.01,31981,21.5,74780.8,5.79,-28.31,-30.17,0,*79
1508256300.25,31982,21.5,74782.5,5.81,-28.31,-30.01,0,*7A
1508256301.49,31983,21.5,74780.0,5.81,-28.47,-30.23,0,*7A
1508256302.74,31984,21.5,74780.3,5.81,-28.59,-30.33,0,*73
1508256303.98,31985,21.44,74780.3,5.79,-28.79,-30.55,0,*77
1508256305.21,31986,21.5,74782.5,5.79,-28.97,-30.73,0,*70
1508256306.45,31987,21.5,74784.0,5.81,-28.85,-30.55,0,*71
1508256307.66,31988,21.5,74784.5,5.79,-28.85,-30.67,0,*78
1508256308.89,31989,21.5,74780.8,5.79,-28.63,-30.33,0,*70
1508256310.13,31990,21.5,74782.5,5.79,-28.59,-30.01,0,*70
1508256311.37,31991,21.5,74784.5,5.81,-28.47,-30.23,0,*79
1508256312.64,31992,21.5,74782.5,5.81,-28.63,-30.55,0,*7D
1508256313.89,31993,21.5,74780.3,5.81,-29.13,-30.83,0,*71
1508256315.15,31994,21.5,74782.0,5.81,-29.01,-30.83,0,*75
1508256316.42,31995,21.5,74786.0,5.81,-28.63,-30.51,0,*7E
1508256317.68,31996,21.5,74782.5,5.81,-28.75,-30.51,0,*7A
1508256318.93,31997,21.5,74780.3,5.79,-28.75,-30.51,0,*7C
1508256320.16,31998,21.5,74786.3,5.79,-28.79,-30.67,0,*7A
1508256321.41,31999,21.5,74782.3,5.79,-29.01,-30.73,0,*70
1508256322.66,32000,21.5,74780.5,5.79,-29.13,-30.89,0,*7C
1508256323.9,32001,21.5,74782.3,5.79,-29.01,-30.83,0,*74
1508256325.12,32002,21.44,74780.5,5.79,-28.97,-30.73,0,*76
1508256326.33,32003,21.44,74780.0,5.79,-28.85,-30.67,0,*71
1508256327.58,32004,21.5,74786.0,5.81,-28.97,-30.73,0,*77
1508256328.86,32005,21.5,74780.3,5.77,-28.91,-30.73,0,*79
1508256330.1,32006,21.44,74780.3,5.77,-28.63,-30.45,0,*72
1508256331.35,32007,21.5,74780.8,5.79,-28.63,-30.39,0,*76
1508256332.59,32008,21.44,74782.0,5.79,-28.63,-30.39,0,*79
1508256333.84,32009,21.5,74784.5,5.79,-28.75,-30.51,0,*71
1508256335.08,32010,21.5,74784.8,5.79,-28.75,-30.51,0,*79
1508256336.33,32011,21.44,74780.0,5.77,-28.63,-30.27,0,*70
1508256337.55,32012,21.44,74780.8,5.77,-28.53,-30.27,0,*70
1508256338.77,32013,21.44,74778.0,5.77,-28.53,-30.45,0,*75
1508256340.01,32014,21.5,74782.0,5.79,-28.75,-30.55,0,*79
1508256341.26,32015,21.5,74784.3,5.79,-28.59,-30.39,0,*7C
1508256342.48,32016,21.5,74780.3,5.79,-28.59,-30.23,0,*74
1508256343.73,32017,21.5,74780.3,5.81,-28.59,-30.33,0,*73
1508256345.0,32018,21.5,74782.3,5.77,-28.63,-30.39,0,*76
1508256346.21,32019,21.5,74784.8,5.79,-28.47,-30.23,0,*74
1508256347.43,32020,21.44,74780.0,5.79,-28.43,-30.23,0,*7A
1508256348.67,32021,21.44,74780.0,5.81,-28.43,-30.23,0,*7C
1508256349.93,32022,21.5,74782.3,5.77,-28.47,-30.05,0,*76
1508256351.16,32023,21.44,74780.8,5.79,-28.63,-30.33,0,*7A
1508256352.39,32024,21.44,74782.0,5.81,-28.47,-30.23,0,*7D
1508256353.66,32025,21.44,74782.5,5.81,-28.75,-30.39,0,*76
1508256354.93,32026,21.5,74784.8,5.81,-28.59,-30.39,0,*7B
1508256356.17,32027,21.5,74782.8,5.79,-28.43,-30.01,0,*7D
1508256357.41,32028,21.44,74780.3,5.81,-28.47,-30.23,0,*71
1508256358.68,32029,21.44,74782.8,5.81,-28.75,-30.39,0,*7A
1508256359.94,32030,21.5,74782.5,5.81,-28.43,-30.01,0,*7C
1508256361.21,32031,21.5,74784.3,5.81,-28.47,-30.39,0,*72
1508256362.43,32032,21.44,74782.3,5.79,-28.59,-30.33,0,*73
1508256363.68,32033,21.44,74782.3,5.81,-28.59,-30.33,0,*75
1508256364.95,32034,21.44,74782.8,5.81,-28.59,-30.39,0,*78
1508256366.19,32035,21.44,74780.5,5.81,-28.59,-30.23,0,*72
1508256367.44,32036,21.5,74784.3,5.81,-28.63,-30.33,0,*79
1508256368.71,32037,21.5,74786.5,5.81,-28.59,-30.39,0,*7B
1508256369.98,32038,21.44,74782.5,5.81,-28.59,-30.39,0,*74
1508256371.24,32039,21.44,74782.5,5.81,-28.63,-30.39,0,*7C
1508256372.5,32040,21.44,74780.5,5.81,-28.85,-30.73,0,*74
1508256373.75,32041,21.5,74786.8,5.81,-28.85,-30.55,0,*71
1508256375.01,32042,21.5,74784.5,5.81,-28.75,-30.51,0,*79
1508256376.28,32043,21.5,74782.5,5.81,-28.63,-30.39,0,*71
1508256377.55,32044,21.5,74784.5,5.81,-28.59,-30.39,0,*7F
1508256378.82,32045,21.44,74784.0,5.81,-28.59,-30.39,0,*7E
1508256380.06,32046,21.5,74786.3,5.81,-28.25,-29.79,0,*7A
1508256381.33,32047,21.5,74786.3,5.81,-28.43,-30.01,0,*7C
1508256382.53,32048,21.44,74780.3,5.83,-28.53,-30.27,0,*74
1508256383.79,32049,21.5,74784.3,5.81,-28.75,-30.51,0,*72
1508256385.04,32050,21.44,74784.5,5.81,-28.59,-30.33,0,*70
1508256386.24,32051,21.44,74782.8,5.83,-28.37,-29.95,0,*7F
1508256387.51,32052,21.44,74780.0,5.81,-28.63,-30.51,0,*7F
1508256388.72,32053,21.44,74782.8,5.83,-28.53,-30.33,0,*7B
1508256389.97,32054,21.44,74782.3,5.83,-28.59,-30.17,0,*70
1508256391.22,32055,21.44,74782.0,5.83,-28.75,-30.51,0,*7D
1508256392.47,32056,21.44,74784.5,5.83,-28.79,-30.61,0,*71
1508256393.71,32057,21.44,74780.5,5.83,-28.79,-30.67,0,*76
1508256394.98,32058,21.44,74782.8,5.81,-29.13,-30.73,0,*73
1508256396.23,32059,21.44,74780.5,5.81,-28.97,-30.73,0,*7F
1508256397.47,32060,21.44,74782.8,5.83,-29.01,-30.67,0,*7C
1508256398.71,32061,21.44,74782.8,5.81,-28.97,-30.73,0,*74
1508256399.97,32062,21.44,74780.3,5.81,-28.85,-30.73,0,*74
1508256401.2,32063,21.5,74786.5,5.79,-28.75,-30.67,0,*78
1508256402.47,32064,21.44,74784.0,5.81,-28.79,-30.51,0,*71
1508256403.73,32065,21.44,74782.0,5.81,-28.79,-30.55,0,*74
1508256405.0,32066,21.44,74780.8,5.81,-28.75,-30.51,0,*7F
1508256406.22,32067,21.5,74784.3,5.79,-28.85,-30.55,0,*72
1508256407.45,32068,21.44,74782.0,5.79,-28.97,-30.73,0,*7A
1508256408.7,32069,21.44,74780.5,5.81,-28.59,-30.23,0,*7B
1508256409.97,32070,21.44,74780.0,5.81,-28.59,-30.17,0,*74
1508256411.22,32071,21.44,74782.0,5.79,-28.43,-30.17,0,*79
1508256412.48,32072,21.44,74784.5,5.81,-28.75,-30.51,0,*7A
1508256413.73,32073,21.44,74780.3,5.81,-28.59,-30.33,0,*71
1508256414.99,32074,21.44,74782.8,5.81,-28.79,-30.67,0,*75
1508256416.22,32075,21.44,74780.3,5.79,-28.79,-30.67,0,*73
1508256417.46,32076,21.44,74782.3,5.79,-28.75,-30.51,0,*79
1508256418.71,32077,21.44,74784.0,5.79,-28.63,-30.39,0,*71
1508256419.98,32078,21.44,74784.3,5.81,-28.59,-30.51,0,*7E
1508256421.24,32079,21.44,74780.0,5.81,-28.59,-30.39,0,*71
1508256422.49,32080,21.44,74780.0,5.79,-28.63,-30.39,0,*79
1508256423.76,32081,21.44,74784.5,5.81,-28.63,-30.39,0,*7F
1508256424.99,32082,21.5,74786.0,5.81,-28.47,-30.23,0,*71
1508256426.26,32083,21.44,74784.5,5.81,-28.63,-30.55,0,*77
1508256427.47,32084,21.44,74786.0,5.79,-28.85,-30.67,0,*7E
1508256428.7,32085,21.44,74780.5,5.79,-28.85,-30.73,0,*7A
1508256429.97,32086,21.44,74780.5,5.81,-28.79,-30.55,0,*79
1508256431.21,32087,21.44,74780.8,5.79,-28.75,-30.51,0,*77
1508256432.44,32088,21.44,74782.3,5.79,-28.97,-30.73,0,*74
1508256433.7,32089,21.44,74786.3,5.79,-29.01,-30.73,0,*7B
1508256434.9,32090,21.44,74786.3,5.79,-28.85,-30.67,0,*7B
1508256436.13,32091,21.44,74784.0,5.81,-28.97,-30.67,0,*7E
1508256437.38,32092,21.44,74786.3,5.77,-28.79,-30.45,0,*74
1508256438.58,32093,21.44,74784.5,5.79,-28.97,-30.67,0,*7B
1508256439.78,32094,21.44,74786.8,5.79,-28.85,-30.67,0,*7F
1508256440.99,32095,21.44,74786.8,5.79,-28.97,-30.67,0,*7D
1508256442.24,32096,21.44,74784.0,5.77,-28.85,-30.61,0,*75
1508256443.45,32097,21.44,74782.8,5.79,-28.85,-30.67,0,*7C
1508256444.68,32098,21.44,74780.3,5.79,-28.85,-30.73,0,*76
1508256445.94,32099,21.44,74784.5,5.79,-29.01,-30.89,0,*7F
1508256447.17,32100,21.44,74784.8,5.79,-29.01,-30.83,0,*74
1508256448.45,32101,21.44,74786.3,5.77,-28.91,-30.61,0,*7F
1508256449.73,32102,21.44,74786.8,5.77,-28.91,-30.77,0,*7B
1508256451.0,32103,21.44,74786.3,5.77,-29.17,-30.95,0,*79
1508256452.26,32104,21.44,74786.0,5.77,-29.17,-30.95,0,*7E
1508256453.48,32105,21.44,74782.0,5.77,-29.23,-31.05,0,*70
1508256454.68,32106,21.44,74786.5,5.75,-29.23,-31.01,0,*75
1508256455.89,32107,21.44,74782.3,5.75,-29.07,-30.83,0,*79
1508256457.14,32108,21.44,74784.0,5.75,-28.75,-30.61,0,*7E
1508256458.34,32109,21.5,74790.3,5.75,-29.07,-30.83,0,*77
1508256459.57,32110,21.44,74786.5,5.75,-29.39,-31.01,0,*79
1508256460.85,32111,21.44,74784.0,5.77,-29.17,-30.89,0,*77
1508256462.08,32112,21.44,74780.0,5.75,-29.07,-30.77,0,*76
1508256463.31,32113,21.44,74780.5,5.75,-28.97,-30.77,0,*7F
1508256464.54,32114,21.44,74784.5,5.75,-29.07,-30.77,0,*70
1508256465.75,32115,21.44,74786.0,5.75,-28.85,-30.67,0,*7B
1508256466.98,32116,21.44,74784.8,5.75,-28.91,-30.67,0,*7D
1508256468.24,32117,21.44,74786.3,5.73,-28.97,-30.77,0,*7D
1508256469.46,32118,21.44,74784.0,5.73,-28.97,-30.83,0,*79
1508256470.72,32119,21.44,74784.8,5.73,-28.91,-30.67,0,*74
1508256471.97,32120,21.44,74782.8,5.73,-28.85,-30.61,0,*7D
1508256473.21,32121,21.44,74784.5,5.73,-28.85,-30.67,0,*7A
1508256474.43,32122,21.44,74784.3,5.73,-29.07,-30.83,0,*78
1508256475.65,32123,21.44,74786.8,5.75,-28.69,-30.55,0,*7D
1508256476.9,32124,21.44,74784.8,5.75,-28.75,-30.61,0,*70
1508256478.16,32125,21.44,74784.0,5.75,-28.91,-30.51,0,*78
1508256479.35,32126,21.44,74780.0,5.75,-28.53,-30.27,0,*74
1508256480.58,32127,21.44,74784.8,5.75,-28.59,-30.45,0,*7B
1508256481.83,32128,21.44,74786.8,5.77,-28.97,-30.77,0,*75
1508256483.03,32129,21.44,74784.3,5.75,-28.97,-30.83,0,*7D
1508256484.26,32130,21.44,74782.0,5.75,-29.07,-30.95,0,*7A
1508256485.48,32131,21.44,74782.3,5.73,-29.07,-30.83,0,*7A
1508256486.73,32132,21.44,74784.0,5.73,-29.23,-30.95,0,*78
1508256487.95,32133,21.44,74786.3,5.71,-29.17,-30.83,0,*7B
1508256489.17,32134,21.44,74786.3,5.71,-29.17,-31.05,0,*73
1508256490.41,32135,21.44,74784.8,5.73,-29.29,-31.01,0,*79
1508256491.63,32136,21.44,74784.0,5.73,-29.07,-31.01,0,*76
1508256492.85,32137,21.44,74786.5,5.71,-29.29,-31.05,0,*7D
1508256494.1,32138,21.44,74784.5,5.73,-29.07,-30.77,0,*78
1508256495.35,32139,21.44,74784.0,5.71,-29.13,-30.89,0,*7F
1508256496.58,32140,21.44,74784.8,5.71,-28.97,-30.77,0,*7D
1508256497.8,32141,21.44,74784.8,5.71,-28.97,-30.73,0,*78
1508256499.05,32142,21.44,74784.3,5.71,-28.75,-30.51,0,*77
1508256500.27,32143,21.44,74784.8,5.71,-29.13,-30.83,0,*78
1508256501.51,32144,21.44,74784.5,5.71,-28.63,-30.51,0,*76
1508256502.73,32145,21.44,74780.8,5.71,-28.59,-30.11,0,*7A
1508256503.97,32146,21.44,74782.3,5.71,-28.43,-30.01,0,*73
1508256505.19,32147,21.44,74784.0,5.73,-28.37,-29.95,0,*76
1508256506.41,32148,21.44,74784.5,5.73,-28.53,-30.27,0,*7A
1508256507.63,32149,21.44,74786.5,5.73,-28.69,-30.45,0,*76
1508256508.86,32150,21.44,74786.8,5.71,-28.59,-30.33,0,*7E
1508256510.11,32151,21.44,74784.3,5.73,-28.59,-30.33,0,*7D